Weather History for Anderson, SC

Change the Weather History Date:

Saturday, June 29, 2013

  Actual Average Record
Temperature  
Mean Temperature 78 °F -  
Max Temperature 89 °F 89 °F 105 °F (2012)
Min Temperature 69 °F 67 °F 58 °F (1968)
Cooling Degree Days 14    
Growing Degree Days 28 (Base 50)    
Moisture  
Dew Point 69 °F    
Average Humidity 81    
Maximum Humidity 100    
Minimum Humidity 44    
Precipitation  
Precipitation 0.01 in - - ()
Sea Level Pressure  
Sea Level Pressure 29.68 in    
Wind  
Wind Speed 7 mph (SW)    
Max Wind Speed 12 mph    
Max Gust Speed 17 mph    
Visibility 10 miles    
Events      
Averages and records for this station are not official NWS values.
T = Trace of Precipitation, MM = Missing Value Source: NWS Daily Summary

Daily Weather History Graph

Daily Weather History Graph

Search for Another Location

Airport:

Trip Planner

Search our weather history database for the weather conditions in past years. The results will help you decide how hot, cold, wet, or windy it might be!

Date:

Astronomy

Jun. 29, 2013 Rise Set
Actual Time 6:21 AM EDT 8:47 PM EDT
Civil Twilight 5:51 AM EDT 9:16 PM EDT
Nautical Twilight 5:15 AM EDT 9:53 PM EDT
Astronomical Twilight 4:35 AM EDT 10:32 PM EDT
Moon 12:33 AM EDT (6/29) 1:12 PM EDT (6/29)
Length of Visible Light 15h 25m
Length of Day
14h 26m
Waning Gibbous, 56% of the Moon is Illuminated
Jun 29
Waning Gibbous
Jun 30
Last Quarter
Jul 8
New
Jul 15
First Quarter
Jul 22
Full

Hourly Weather History & Observations

Time (EDT) Temp. Heat Index Dew Point Humidity Pressure Visibility Wind Dir Wind Speed Gust Speed Precip Events Conditions
12:12 AM 73.4 °F - 71.6 °F 94% 29.71 in 10.0 mi WSW 9.2 mph - N/A   Mostly Cloudy
12:56 AM 73.0 °F - 72.0 °F 96% 29.66 in 10.0 mi WSW 5.8 mph - N/A   Mostly Cloudy
1:56 AM 73.0 °F - 72.0 °F 96% 29.65 in 10.0 mi SW 8.1 mph - N/A   Mostly Cloudy
2:07 AM 73.4 °F - 71.6 °F 94% 29.68 in 10.0 mi SW 5.8 mph - N/A   Mostly Cloudy
2:56 AM 73.0 °F - 71.1 °F 93% 29.65 in 10.0 mi WSW 8.1 mph - N/A   Overcast
3:56 AM 72.0 °F - 70.0 °F 93% 29.64 in 10.0 mi WSW 3.5 mph - N/A   Mostly Cloudy
4:56 AM 71.1 °F - 70.0 °F 96% 29.65 in 10.0 mi Calm Calm - N/A   Clear
5:29 AM 69.8 °F - 69.8 °F 100% 29.69 in 9.0 mi Calm Calm - 0.01 in   Scattered Clouds
5:56 AM 70.0 °F - 69.1 °F 97% 29.66 in 10.0 mi Calm Calm - 0.01 in   Partly Cloudy
6:56 AM 69.1 °F - 68.0 °F 96% 29.68 in 7.0 mi South 5.8 mph - N/A   Clear
7:56 AM 69.1 °F - 69.1 °F 100% 29.70 in 9.0 mi South 4.6 mph - N/A   Clear
8:09 AM 69.8 °F - 69.8 °F 100% 29.72 in 10.0 mi South 4.6 mph - N/A   Scattered Clouds
8:56 AM 72.0 °F - 70.0 °F 93% 29.69 in 10.0 mi SW 6.9 mph - N/A   Clear
9:18 AM 73.4 °F - 69.8 °F 88% 29.72 in 10.0 mi South 4.6 mph - N/A   Partly Cloudy
9:56 AM 75.0 °F - 70.0 °F 84% 29.69 in 10.0 mi SW 5.8 mph - N/A   Clear
10:56 AM 78.1 °F - 70.0 °F 76% 29.69 in 10.0 mi WSW 6.9 mph - N/A   Partly Cloudy
11:56 AM 81.0 °F 84.4 °F 70.0 °F 69% 29.69 in 10.0 mi SSW 11.5 mph - N/A   Clear
12:56 PM 82.0 °F 85.5 °F 69.1 °F 65% 29.69 in 10.0 mi SSW 11.5 mph - N/A   Mostly Cloudy
1:56 PM 86.0 °F 88.8 °F 66.9 °F 53% 29.67 in 10.0 mi SW 8.1 mph - N/A   Clear
2:56 PM 87.1 °F 88.9 °F 64.9 °F 48% 29.65 in 10.0 mi Variable 6.9 mph 17.3 mph N/A   Clear
3:56 PM 87.1 °F 88.3 °F 64.0 °F 46% 29.65 in 10.0 mi WSW 11.5 mph - N/A   Partly Cloudy
4:56 PM 88.0 °F 89.6 °F 64.9 °F 46% 29.65 in 10.0 mi WSW 9.2 mph - N/A   Clear
5:56 PM 87.1 °F 87.8 °F 63.0 °F 44% 29.64 in 10.0 mi West 6.9 mph - N/A   Clear
6:56 PM 82.0 °F 85.9 °F 70.0 °F 67% 29.65 in 10.0 mi South 10.4 mph - N/A   Clear
7:56 PM 79.0 °F - 71.1 °F 77% 29.66 in 10.0 mi SSE 5.8 mph - N/A   Clear
8:56 PM 75.9 °F - 69.1 °F 79% 29.67 in 10.0 mi South 11.5 mph - N/A   Clear
9:56 PM 73.9 °F - 69.1 °F 85% 29.70 in 10.0 mi South 8.1 mph - N/A   Clear
10:56 PM 73.0 °F - 69.1 °F 87% 29.71 in 10.0 mi SSW 5.8 mph - N/A   Clear
11:56 PM 71.1 °F - 68.0 °F 90% 29.72 in 10.0 mi SSW 5.8 mph - N/A   Clear